Kezdőlap
METAR-TAF:

METAR-TAF

Repülőterek :

Kimball Municipal Airport (Robert E. Arraj Field)

Kimball, Nebraska, Amerikai Egyesült Államok

földrajzi szélesség: 41-11N, földrajzi hosszúság: 103-40W, magasság: 1501 m

Jelenlegi meteorológiai megfigyelések

A jelentés 14 perccel ezelõtt készült, 03:15 UTC
Dél-délnyugati szél 7 kt
Hőmérséklet 25°C
Páratartalom 34%
Légköri nyomás 1015 hPa
Látótávolság: 16.1 km
Derült ég

METAR: KIBM 130315Z AUTO 21007KT 10SM CLR 25/08 A2998 RMK AO2 T02510084

Idő: 21:29 (03:29 UTC)


TAF: hiányzik

Meteorológiai megfigyelések és előrejelzések több, mint 4000 repülőtéren (METAR és TAF jelentéseket).

A térképen piros és sárga pontok jelzik az elérhető meteorológiai állomásokat.

Mozgassa az egeret a pont fölött, hogy megjelenjen az állomás neve.

Azután kattintson az időjárási megfigyelések és előrejelzések megtekintéséhez.

A térkép megváltoztatása: kattintson a fekete keresztel jelölt zöld gombra ráközelítéshez, a vonallal jelölt zöld gombra távolításhoz, vagy a zöld nyilakra a szomszédos térképek eléréséhez.


METAR-TAF: